100LL.CA
Aviation Fuel Pricing for Canadians
Please upgrade your browser - Tested with IE9, FireFox, Chrome, Safari

Fuel Airports Other Help
Prices Economy Info List METAR/TAF Kneeboard Help

Reference Airport: KELOWNA, BC
N 49 57 25.9572  W 119 22 40.5128
Provinces to show:

CYLW KELOWNA, BC
WEATHER
METARCYLW 221600Z AUTO VRB02KT 9SM CLR 20/07 A2988 RMK SLP117 DENSITY ALT 2400FT
TAFTAF CYLW 221240Z 2213/2301 VRB03KT P6SM SCT120 BECMG 2220/2222 26008KT RMK FCST BASED ON AUTO OBS. NXT FCST BY 221900Z
OTHER SITES

FlightAware

FltPlan

Google Maps

SkyVector
FUEL
FBO 100LL
member
100LL
public
JETA MOGAS
Shell Aerocenter (2022-04-16)2.7703.0002.670
  Note: Full Service. Ramp Fees. Discounts may be available for some visitors depending on who is working. Call to confirm before arrival.
Canada Flight Supplement - CYLW
(opens in new tab/window)


Please Send Updates!

Desktop Version ]  [ Mobile Version ]  [ Disclaimer ]